FW8918 Weather Reports


Display with metric or nautical units.
time (UTC)temp
F
wind
direction
speed
MPH
gust
MPH
rain 1hr
in
rain 24hr
in
rain mn
in
humidity
%
barometer
mb
20260505204544 44 58 1.0 4.0 0.00 0.00 0.00 83 1013.2
20260505203028 44 63 0.0 3.0 0.00 0.00 0.00 83 1013.1
20260505201531 45 67 1.0 3.0 0.00 0.00 0.00 83 1013.1
20260505200030 45 0 1.0 7.0 0.00 0.00 0.00 82 1013.1
20260505194536 46 65 1.0 5.0 0.00 0.00 0.00 82 1012.9
20260505193106 46 53 1.0 6.0 0.00 0.00 0.00 80 1013.0
20260505191530 47 1 1.0 6.0 0.00 0.00 0.00 79 1012.8
20260505190035 48 38 1.0 5.0 0.00 0.00 0.00 77 1012.8
20260505184533 49 24 1.0 5.0 0.00 0.00 0.00 75 1012.7
20260505183028 50 327 1.0 7.0 0.00 0.00 0.00 73 1012.6
20260505181531 51 21 3.0 7.0 0.00 0.00 0.00 71 1012.7
20260505180038 52 352 2.0 7.0 0.00 0.00 0.00 71 1012.6
20260505174531 52 359 2.0 7.0 0.00 0.00 0.00 68 1012.4
20260505173029 53 35 2.0 9.0 0.00 0.00 0.00 68 1012.5
20260505171529 53 223 2.0 8.0 0.00 0.00 0.00 67 1012.5
20260505170028 53 53 2.0 10.0 0.00 0.00 0.00 67 1012.7
20260505164529 54 341 3.0 8.0 0.00 0.00 0.00 67 1012.6
20260505163028 54 340 3.0 9.0 0.00 0.00 0.00 66 1012.6
20260505161529 55 335 3.0 9.0 0.00 0.00 0.00 63 1012.5
20260505153027 55 294 3.0 9.0 0.00 0.00 0.00 61 1012.8
20260505151534 56 252 3.0 11.0 0.00 0.00 0.00 61 1012.7
20260505124540 56 331 3.0 9.0 0.00 0.00 0.00 65 1013.0
20260505123030 55 315 3.0 10.0 0.00 0.00 0.00 64 1013.0
20260505121554 55 0 2.0 8.0 0.00 0.00 0.00 66 1012.9
20260505120027 55 23 4.0 9.0 0.00 0.00 0.00 66 1012.9
20260505114533 56 232 4.0 9.0 0.00 0.00 0.00 65 1012.8
20260505113031 55 296 4.0 8.0 0.00 0.00 0.00 66 1012.9
20260505111536 54 44 3.0 9.0 0.00 0.00 0.00 66 1013.0
20260505101528 52 245 2.0 8.0 0.00 0.00 0.00 74 1013.1
20260505100036 53 281 3.0 6.0 0.00 0.00 0.00 71 1013.2
20260505094530 53 305 1.0 5.0 0.00 0.00 0.00 66 1013.1
20260505093031 53 19 1.0 6.0 0.00 0.00 0.00 69 1013.1
20260505091535 53 315 3.0 7.0 0.00 0.00 0.00 68 1013.2
20260505090028 53 277 2.0 5.0 0.00 0.00 0.00 73 1013.1
20260505084528 52 60 1.0 4.0 0.00 0.00 0.00 74 1013.3
20260505083041 51 261 1.0 7.0 0.00 0.00 0.00 76 1013.2
20260505081532 51 247 1.0 2.0 0.00 0.00 0.00 77 1013.3
20260505080043 51 292 0.0 6.0 0.00 0.00 0.00 76 1013.2
20260505074528 50 0 0.0 6.0 0.00 0.00 0.00 80 1013.3
20260505073031 50 257 1.0 4.0 0.00 0.00 0.00 81 1013.2
20260505071544 50 25 1.0 6.0 0.00 0.00 0.00 85 1013.3
20260505070031 48 351 1.0 5.0 0.00 0.00 0.00 89 1013.3
20260505064530 47 304 1.0 3.0 0.00 0.00 0.00 92 1013.4
20260505063042 46 26 2.0 6.0 0.00 0.00 0.00 93 1013.4
20260505061533 46 60 0.0 1.0 0.00 0.00 0.00 94 1013.4
20260505060027 46 0 0.0 0.0 0.00 0.00 0.00 94 1013.3
20260505054541 45 0 0.0 0.0 0.00 0.00 0.00 95 1013.3
20260505053030 44 0 0.0 0.0 0.00 0.00 0.00 95 1013.3
20260505051538 44 0 0.0 0.0 0.00 0.00 0.00 95 1013.2
20260505041543 39 0 0.0 0.0 0.00 0.00 0.00 93 1013.1
20260505040036 39 0 0.0 0.0 0.00 0.00 0.00 93 1013.1
20260505034530 40 0 0.0 0.0 0.00 0.00 0.00 93 1013.1
20260505033032 40 0 0.0 0.0 0.00 0.00 0.00 93 1013.2
20260505031532 40 0 0.0 0.0 0.00 0.00 0.00 92 1013.2
20260505030028 41 0 0.0 0.0 0.00 0.00 0.00 93 1013.3
20260505024529 41 316 0.0 1.0 0.00 0.00 0.00 93 1013.3
20260505023031 41 291 0.0 2.0 0.00 0.00 0.00 93 1013.4
20260505021531 41 0 0.0 0.0 0.00 0.00 0.00 92 1013.6
20260505020045 41 0 0.0 0.0 0.00 0.00 0.00 92 1013.5
20260505014531 42 0 0.0 0.0 0.00 0.00 0.00 92 1013.7
20260505013028 42 0 0.0 1.0 0.00 0.00 0.00 92 1013.8
20260505011533 42 0 0.0 1.0 0.00 0.00 0.00 92 1013.9
20260505010032 42 0 0.0 1.0 0.00 0.00 0.00 92 1013.9
20260505004531 42 0 0.0 1.0 0.00 0.00 0.00 92 1014.1
20260505003031 42 0 0.0 1.0 0.00 0.00 0.00 92 1014.1
20260505001533 42 0 0.0 0.0 0.00 0.00 0.00 91 1014.3
20260505000037 42 0 0.0 2.0 0.00 0.00 0.00 92 1014.3
20260504234528 42 0 0.0 0.0 0.00 0.02 0.00 92 1014.2
20260504233028 42 0 0.0 0.0 0.00 0.02 0.00 92 1014.1
20260504231533 42 0 0.0 0.0 0.00 0.02 0.00 91 1014.2
20260504230031 42 0 0.0 0.0 0.00 0.02 0.00 91 1014.1
20260504224532 42 0 0.0 0.0 0.00 0.03 0.00 91 1014.2
20260504223031 42 0 0.0 0.0 0.00 0.03 0.00 91 1014.2
20260504221528 42 0 0.0 0.0 0.00 0.03 0.00 91 1014.3
20260504220028 42 0 0.0 0.0 0.00 0.03 0.00 91 1014.2
20260504214539 42 0 0.0 0.0 0.00 0.06 0.03 90 1014.3
20260504213030 42 0 0.0 0.0 0.00 0.06 0.03 90 1014.4
20260504211530 42 0 0.0 0.0 0.00 0.06 0.03 89 1014.3
20260504210030 43 0 0.0 0.0 0.00 0.06 0.03 89 1014.5